Regional Weather Roundup
Issued by NWS

Home | Current Version | Previous Version | Graphics & Text | Print | Product List | Glossary On
Versions: 1 2 3 4 5 6 7 8 9 10 11 12 13 14 15 16 17 18 19 20 21 22 23 24 25 26 27 28 29 30 31 32 33 34 35 36 37 38 39 40 41 42 43 44 45 46 47 48 49 50
000
ASUS43 KMPX 300610
RWRMN
WEATHER ROUNDUP FOR MINNESOTA
NATIONAL WEATHER SERVICE TWIN CITIES/CHANHASSEN MN
100 AM CDT THU OCT 30 2014


NOTE: "FAIR" INDICATES FEW OR NO CLOUDS BELOW 12,000 FEET WITH NO
SIGNIFICANT WEATHER AND/OR OBSTRUCTIONS TO VISIBILITY. N/A MEANS
CURRENT SKY AND/OR WEATHER CONDITIONS ARE NOT AVAILABLE.

MNZ060>063-068>070-300700-
   Twin Cities Metro

CITY           SKY/WX    TMP DP  RH WIND       PRES   REMARKS
TWIN CITIES    CLOUDY    38  32  79 E5        30.08F
6HR MIN TEMP:  37; 6HR MAX TEMP:  41;

ST PAUL        CLOUDY    37  34  89 SE5       30.10S
CRYSTAL        CLOUDY    38  33  82 CALM      30.07F
BLAINE         CLOUDY    37  37 100 CALM      30.08S
LAKEVILLE      CLOUDY    34  30  86 CALM      30.07F
EDEN PRAIRIE   CLOUDY    38  32  79 E6        30.06F
6HR MIN TEMP:  37; 6HR MAX TEMP:  40;

SOUTH ST PAUL  CLOUDY    37  33  84 CALM      30.09S
LAKE ELMO      MOCLDY    34  32  93 CALM      30.09S
$$
MNZ001>005-007-008-013>017-022>024-027-028-300700-
   Northwest Minnesota

CITY           SKY/WX    TMP DP  RH WIND       PRES   REMARKS
BEMIDJI        CLOUDY    33  31  90 SE5       30.01F WCI  29
HALLOCK        MOCLDY    36  32  87 E7        30.02F
ROSEAU         PTCLDY    32  28  86 CALM      30.04R
WARROAD        CLOUDY    32  28  86 CALM      30.05R
THIEF RVR FALL CLOUDY    36  32  87 E7        30.01S
CROOKSTON      MIX PCPN  37  34  87 SE7       30.01R
FOSSTON        CLOUDY    34  32  93 SE3       30.01R
DETROIT LAKES  CLOUDY    36  34  93 S8        30.00F
MOORHEAD       MOCLDY    39  37  93 SE9       30.00F
PARK RAPIDS    CLOUDY    35  30  82 SE5       30.01F WCI  31
MAHNOMEN       CLOUDY    35  32  88 SE5       29.99S WCI  31
$$
MNZ006-009>011-018-025>026-300700-
   North Central Minnesota

CITY           SKY/WX    TMP DP  RH WIND       PRES   REMARKS
BAUDETTE       CLOUDY    34  32  92 S3        30.03S
FLAG ISLAND    CLOUDY    36  34  93 W7        30.03R
INTL FALLS     CLOUDY    35  33  92 W5        30.03S WCI  31
6HR MIN TEMP:  34; 6HR MAX TEMP:  36; 6HR PCP: TRACE;

WASKISH        CLOUDY    36  32  87 CALM      30.04S
BIG FORK       CLOUDY    36  32  87 CALM      30.04S
LONGVILLE      CLOUDY    32  30  93 CALM      30.03S
GRAND RAPIDS   CLOUDY    36  30  80 S3        30.03S
CRANE LAKE     CLOUDY    34  34 100 CALM      30.05S
ORR            CLOUDY    34  32  93 CALM      30.01S
COOK           CLOUDY    34  34 100 CALM      30.03F
WALKER         CLOUDY    34  29  84 S5        30.01F WCI  30
$$
MNZ012-019>021-037-300700-
   Northeast Minnesota

CITY           SKY/WX    TMP DP  RH WIND       PRES   REMARKS
DULUTH         CLOUDY    36  32  85 SW5       30.04S
6HR MIN TEMP:  36; 6HR MAX TEMP:  39;

ELY            CLOUDY    34  34 100 W5        30.02F WCI  30
HIBBING        CLOUDY    36  32  85 CALM      30.03F
EVELETH        CLOUDY    34  34 100 SW3       30.04S
DULUTH HARBOR  CLOUDY    39  34  81 SW5       30.08S
TWO HARBORS    CLOUDY    39 N/A N/A W3        30.04S
SILVER BAY     CLOUDY    37  34  87 W3        30.03S
GRAND MARAIS     N/A     40  35  83 NW3       30.04S
G MARAIS ARPRT CLOUDY    34  30  86 W2        30.02S
$$
MNZ029>031-032-039>041-046>048-054>057-064-300700-
   West Central Minnesota

CITY           SKY/WX    TMP DP  RH WIND       PRES   REMARKS
FERGUS FALLS   CLOUDY    37  36  93 S9        30.03F
WHEATON        DRIZZLE   36  34  93 E7        30.03F
MORRIS         DRIZZLE   37  36  93 SE8       30.02S
ALEXANDRIA     CLOUDY    37  32  82 S8        30.04S
ELBOW LAKE     DRIZZLE   37  35  92 SE9       30.01F
WADENA         RAIN      36  30  80 SE5       30.02F
GLENWOOD       MOCLDY    36  34  93 E5        30.04S
APPLETON       LGT RAIN  39  36  87 E6        30.02F
BENSON         LGT RAIN  37  36  93 CALM      30.04R
ORTONVILLE     LGT RAIN  39  36  87 E7        30.01S
MADISON        LGT RAIN  43  39  87 SE3       30.02S
WILLMAR        FAIR      39  32  75 E5        30.05S
$$
MNZ033>034-036-042>043-049>051-058-059-300700-
   Central Minnesota

CITY           SKY/WX    TMP DP  RH WIND       PRES   REMARKS
ST CLOUD       LGT RAIN  38  33  82 CALM      30.07S
6HR MIN TEMP:  35; 6HR MAX TEMP:  41; 6HR PCP: TRACE;

SAUK CENTRE    CLOUDY    36  32  87 S7        30.04F
PAYNESVILLE    CLOUDY    35  31  88 CALM      30.06S
AITKIN         CLOUDY    36  30  80 CALM      30.03F
PINE RIVER     CLOUDY    34  32  93 CALM      30.06F
BRAINERD       CLOUDY    34  31  88 S3        30.05F
STAPLES        MOCLDY    34  30  86 CALM      30.03F
LONG PRAIRIE   LGT SNOW  34  34 100 NE3       30.04F
LITTLE FALLS   MOCLDY    34  32  93 CALM      30.05F
LITCHFIELD     CLOUDY    39  36  87 E3        30.06S
BUFFALO        CLOUDY    37  32  84 CALM      30.07F
MAPLE LAKE     CLOUDY    39  36  88 CALM      30.07S
$$
MNZ037-044-045-052-053-300700-
   East Central Minnesota

CITY           SKY/WX    TMP DP  RH WIND       PRES   REMARKS
PRINCETON      CLOUDY    37  34  87 CALM      30.07F
MORA           CLOUDY    36  32  87 CALM      30.08S
CAMBRIDGE      CLOUDY    39  30  70 CALM      30.06S
RUSH CITY      CLOUDY    36  32  84 CALM      30.08S
MOOSE LAKE     CLOUDY    36  32  87 CALM      30.04S
HINCKLEY       MOCLDY    36  34  93 CALM      30.07S
CLOQUET        CLOUDY    36  32  87 CALM      30.05S
MCGREGOR       CLOUDY    36  34  93 CALM      30.05S
$$
MNZ071>073-080-081-089-090-097-098-300700-
   Southwest Minnesota

CITY           SKY/WX    TMP DP  RH WIND       PRES   REMARKS
MONTEVIDEO     LGT RAIN  39  36  87 CALM      30.04S
GRANITE FALLS  CLOUDY    40  32  73 CALM      30.04S
CANBY          LGT RAIN  40  37  90 E3        30.02S
MARSHALL       CLOUDY    39  34  81 E8        30.01R
REDWOOD FALLS  CLOUDY    40  32  73 SE3       30.03S
OLIVIA         CLOUDY    39  32  75 SE5       30.03S
PIPESTONE      CLOUDY    45  32  61 S5        29.98F
WINDOM         CLOUDY    43  34  70 CALM      30.02F
WORTHINGTON    CLOUDY    45  30  57 S10       30.01F
JACKSON        CLOUDY    43  32  65 S9        30.03S
TRACY          CLOUDY    47  32  57 SW7       30.01R
SLAYTON        CLOUDY    44  31  60 CALM      30.01S
$$
MNZ065>067-074>077-082>085-091>093-300700-
   South Central Minnesota

CITY           SKY/WX    TMP DP  RH WIND       PRES   REMARKS
MANKATO        MOCLDY    39  28  65 S8        30.05F
NEW ULM        CLOUDY    39  32  75 SE3       30.04S
ST JAMES       CLOUDY    41  32  70 SE5       30.05S
FAIRMONT       CLOUDY    39  30  70 S8        30.04F
GLENCOE        CLOUDY    39  34  82 E5        30.05S
FARIBAULT      CLOUDY    36  34  93 CALM      30.07F
OWATONNA       MOCLDY    39  32  75 SE9       30.07F
WASECA         MOCLDY    36  30  80 CALM      30.08F
ALBERT LEA     MOCLDY    37  34  87 S3        30.07F
$$
MNZ078>079-086>088-094>096-300700-
   Southeast Minnesota

CITY           SKY/WX    TMP DP  RH WIND       PRES   REMARKS
ROCHESTER      CLOUDY    34  31  88 S6        30.10R WCI  29
6HR MIN TEMP:  32; 6HR MAX TEMP:  38;

RED WING       CLOUDY    36  32  87 CALM      30.09S
STANTON        CLOUDY    36  32  84 CALM      30.07S
DODGE CENTER   CLOUDY    36  34  93 S5        30.08S
WINONA         MOCLDY    36  34  93 CALM      30.12S
AUSTIN         MOCLDY    36  30  80 CALM      30.08F
PRESTON        CLOUDY    34  31  88 S5        30.10R WCI  30
$$
ABBREVIATIONS USED IN REMARKS
   TC - TEMPERATURES IN CELSIUS
  WCI - WIND CHILL INDEX
   HX - HEAT INDEX
  VSB - VISIBILITY
$$



USA.gov is the U.S. government's official web portal to all federal, state and local government web resources and services.